Temp
42 43 43 43 43 44 45 45 46 47 47 47 48 48 49 50 52 52 51 52 51 51 52 52 52 52 50 50 49 50 51 50 40 40 42 43 42 42 43 43 44 44 45
42 42 42 43 43 43 44 45 46 46 47 47 47 48 49 51 52 51 51 50 51 50 51 52 52 52 49 49 49 48 49 49 43 38 40 39 39 40 40 40 42 43 43
41 41 41 41 42 43 44 44 45 46 46 47 47 47 49 50 51 52 51 50 50 50 50 51 50 51 49 49 47 47 47 46 45 42 38 39 38 38 36 37 36 37 39
40 41 40 41 42 43 43 44 44 45 45 46 47 47 48 51 51 51 51 50 49 50 50 51 51 52 48 48 47 46 46 44 43 41 38 37 36 36 36 33 31 34 33
40 40 40 41 42 42 42 43 44 44 45 46 46 47 47 49 50 51 51 51 49 49 49 50 50 45 43 47 47 46 46 44 41 39 37 36 34 33 32 33 31 31 31
40 40 40 41 41 41 41 42 43 44 45 46 47 49 46 47 44 43 48 50 49 48 47 48 46 40 44 43 44 45 47 44 42 40 39 36 35 35 33 32 31 29 27
38 38 39 40 40 40 41 41 42 43 44 45 46 47 46 46 44 43 42 49 49 48 47 46 44 43 43 47 43 43 42 44 45 45 40 39 36 36 34 32 32 32 30
37 38 38 38 38 38 38 40 41 42 43 44 45 47 46 45 43 43 40 49 48 48 47 47 45 44 45 45 45 44 45 44 45 45 44 42 41 38 38 36 34 31 31
36 37 37 38 37 37 38 39 41 41 42 44 45 46 44 45 42 41 43 47 45 45 46 46 46 44 40 42 43 40 38 39 42 42 43 42 41 40 39 34 31 29 27
35 36 36 37 38 38 38 38 38 40 40 37 40 42 38 44 41 41 42 45 44 39 41 43 36 45 39 41 43 39 37 37 37 36 38 39 40 39 37 39 34 32 30
34 34 35 36 36 38 37 36 37 38 37 38 37 37 38 39 42 40 41 44 43 38 38 37 37 40 40 41 42 40 40 37 38 35 35 36 36 36 36 36 37 37 33
32 33 33 33 34 35 35 35 36 37 36 34 34 34 34 37 37 40 40 41 42 39 38 37 37 40 40 41 39 40 39 37 36 35 35 34 34 34 34 34 34 32 32
33 32 33 33 33 33 34 34 35 34 34 33 33 34 34 34 35 38 39 40 40 37 36 38 39 39 40 40 40 39 35 36 35 35 35 35 35 35 32 29 28 28 27
33 33 33 33 33 33 33 33 34 34 33 33 33 33 34 34 34 34 34 35 36 35 36 36 37 38 38 37 35 37 35 36 36 36 35 34 32 32 32 30 29 29 28
33 33 32 33 33 33 33 33 33 34 34 33 33 33 34 34 35 37 36 34 34 35 34 33 33 33 34 34 34 34 34 34 35 34 33 32 32 32 32 32 32 30 30
28 27 29 34 34 33 33 34 38 37 38 38 38 36 33 36 38 39 39 39 38 37 35 33 33 33 34 34 34 33 33 34 34 34 33 33 33 32 31 31 33 32 31
27 27 26 27 30 29 32 33 32 34 38 38 38 38 38 38 38 38 39 39 38 37 34 34 34 34 35 34 34 34 34 34 35 34 34 33 33 33 31 30 31 32 31
26 28 29 29 30 30 29 32 32 32 32 33 36 37 37 37 37 38 39 37 34 35 33 34 34 34 34 34 34 34 34 33 34 34 34 33 33 33 31 30 31 32 31
18 18 19 22 27 31 31 31 31 33 33 32 33 35 34 37 37 38 39 33 33 33 33 33 33 33 33 33 34 34 34 34 34 33 33 33 33 33 32 32 32 32 31
11 13 13 16 16 19 21 30 30 30 30 31 33 33 33 33 33 33 33 33 33 33 33 33 33 33 34 34 34 34 34 34 33 34 34 34 34 34 33 33 32 31 29
12 13 10 20 27 27 28 29 30 30 29 30 31 33 36 33 33 33 33 33 33 33 33 33 33 33 33 34 34 34 34 34 34 34 34 33 34 33 34 34 33 32 31
9 9 9 9 17 24 26 28 28 28 29 29 30 32 35 33 33 33 33 33 33 33 33 33 33 33 33 33 34 34 34 34 34 34 33 34 33 33 33 33 32 31 29
8 8 8 7 8 8 11 17 17 22 25 28 30 30 31 31 32 33 33 34 33 33 33 33 33 33 33 33 34 34 34 34 34 34 34 33 33 32 32 31 30 28 27
4 5 5 3 3 0 0 1 4 8 12 15 20 23 26 28 30 31 33 34 34 34 33 33 33 33 34 33 33 34 34 34 34 34 34 33 33 32 31 30 29 28 27
-3 -1 -1 -2 -5 -3 -2 -1 2 1 4 9 10 13 15 17 20 23 26 28 31 33 34 33 33 33 33 34 34 34 34 33 34 34 34 33 33 32 31 29 29 27 26
-3 -2 -3 -2 -2 -3 -3 0 1 4 4 7 8 9 11 13 15 17 19 21 23 24 25 31 34 35 34 34 34 34 33 33 33 33 33 32 32 32 31 29 28 27 25
MSLP
1018.17 1018.43 1018.71 1019.09 1019.42 1019.58 1019.77 1020.08 1020.09 1020.05 1020.07 1020.39 1020.41 1020.57 1020.48 1020.26 1020.07 1020.09 1020.32 1020.38 1020.32 1020.48 1020.59 1020.45 1020.64 1020.96 1021.60 1021.92 1022.16 1022.73 1023.21 1023.65 1025.51 1028.39 1028.78 1029.20 1029.42 1029.74 1030.34 1030.74 1030.93 1031.13 1031.63
1017.91 1018.29 1018.53 1018.84 1019.34 1019.57 1019.56 1019.77 1019.79 1019.88 1019.81 1020.17 1020.26 1020.42 1020.55 1020.36 1020.22 1020.26 1020.39 1020.52 1020.75 1020.76 1020.87 1020.95 1021.01 1021.36 1021.93 1022.56 1022.85 1023.35 1023.83 1024.64 1024.89 1027.25 1029.12 1029.77 1030.33 1030.67 1030.97 1031.33 1031.89 1032.21 1032.56
1017.86 1018.22 1018.53 1018.74 1019.05 1019.44 1019.54 1019.54 1019.59 1019.74 1019.72 1019.91 1020.23 1020.30 1020.53 1020.47 1020.33 1020.30 1020.51 1020.91 1020.80 1021.03 1021.09 1021.31 1021.47 1021.44 1022.12 1022.76 1023.38 1023.96 1024.70 1025.55 1026.44 1027.02 1028.81 1030.20 1031.14 1031.57 1032.02 1032.50 1033.11 1033.33 1033.63
1017.58 1017.92 1018.18 1018.42 1018.69 1019.00 1019.42 1019.47 1019.51 1019.73 1019.77 1019.79 1020.04 1020.19 1020.27 1020.47 1020.32 1020.35 1020.39 1020.58 1021.17 1021.34 1021.44 1021.47 1021.63 1022.05 1022.05 1022.73 1023.31 1024.18 1025.08 1025.92 1027.06 1027.98 1029.10 1030.18 1031.08 1032.14 1032.32 1032.83 1033.78 1034.30 1034.62
1017.24 1017.53 1017.69 1017.95 1018.43 1018.80 1019.12 1019.22 1019.26 1019.42 1019.59 1019.62 1019.79 1020.07 1020.13 1020.21 1020.25 1020.29 1020.35 1020.60 1020.80 1021.30 1021.57 1021.85 1021.88 1022.21 1022.67 1022.53 1023.19 1024.38 1025.11 1025.93 1027.07 1028.06 1029.08 1029.99 1030.99 1031.87 1032.24 1033.16 1033.96 1034.67 1035.37
1016.68 1016.86 1017.30 1017.71 1018.15 1018.59 1018.79 1018.95 1019.18 1019.36 1019.50 1019.69 1019.62 1019.69 1020.08 1020.21 1020.21 1020.13 1020.27 1020.47 1020.72 1021.04 1021.58 1021.91 1022.38 1022.44 1022.88 1023.07 1023.27 1023.89 1024.34 1025.19 1026.61 1027.45 1028.37 1029.15 1030.18 1031.01 1032.05 1032.79 1033.62 1034.58 1035.36
1016.43 1016.67 1017.16 1017.58 1018.06 1018.37 1018.58 1018.80 1018.95 1019.16 1019.37 1019.55 1019.65 1019.54 1019.69 1020.10 1020.05 1020.10 1020.16 1020.24 1020.66 1020.86 1021.31 1021.79 1022.42 1022.68 1022.62 1023.24 1023.68 1024.09 1024.76 1024.97 1024.79 1025.55 1026.75 1027.93 1029.15 1029.90 1030.91 1032.26 1032.93 1033.42 1034.25
1016.24 1016.59 1017.15 1017.69 1018.17 1018.49 1018.76 1018.92 1019.01 1019.10 1019.22 1019.39 1019.57 1019.60 1019.65 1019.71 1020.07 1019.92 1020.04 1020.19 1020.43 1020.74 1021.14 1021.57 1022.00 1022.65 1022.78 1023.05 1023.79 1024.48 1024.89 1025.11 1025.32 1025.56 1026.18 1027.00 1027.86 1029.14 1030.11 1031.02 1032.23 1033.29 1034.33
1016.30 1016.62 1017.12 1017.46 1017.96 1018.35 1018.60 1018.62 1018.81 1019.11 1019.23 1019.33 1019.41 1019.52 1019.75 1019.63 1019.75 1019.85 1019.79 1020.02 1020.39 1020.63 1020.98 1021.33 1021.76 1022.25 1022.76 1022.92 1023.59 1024.30 1024.89 1025.25 1025.36 1025.83 1026.27 1027.02 1027.89 1028.86 1029.68 1031.00 1032.24 1032.95 1034.32
1016.60 1016.89 1017.06 1017.33 1017.73 1018.14 1018.32 1018.45 1018.53 1018.87 1019.12 1019.35 1019.48 1019.53 1019.73 1019.71 1019.68 1019.57 1019.73 1019.72 1020.09 1020.66 1020.82 1021.17 1021.47 1021.85 1022.29 1022.73 1023.18 1023.91 1024.66 1025.24 1025.46 1026.04 1026.73 1027.28 1027.89 1028.60 1029.04 1029.28 1030.45 1031.33 1032.53
1016.96 1017.14 1017.28 1017.55 1017.85 1017.99 1018.22 1018.51 1018.75 1018.94 1019.20 1019.37 1019.42 1019.54 1019.75 1019.71 1019.37 1019.56 1019.53 1019.41 1019.50 1020.42 1020.72 1021.04 1021.18 1021.62 1021.88 1022.42 1022.67 1023.48 1023.89 1024.70 1025.24 1026.02 1026.63 1027.45 1028.13 1028.72 1029.27 1029.46 1029.83 1030.08 1030.93
1017.38 1017.64 1017.85 1018.14 1018.25 1018.30 1018.44 1018.70 1018.88 1019.07 1019.17 1019.35 1019.38 1019.47 1019.61 1019.69 1019.54 1019.27 1019.14 1019.47 1019.39 1019.86 1020.25 1020.39 1020.72 1021.32 1021.72 1022.04 1022.70 1023.03 1023.60 1024.41 1025.21 1025.84 1026.62 1027.27 1027.74 1028.15 1028.67 1029.27 1029.84 1030.31 1030.70
1017.76 1017.95 1018.20 1018.42 1018.56 1018.61 1018.77 1019.02 1019.24 1019.20 1019.27 1019.35 1019.40 1019.51 1019.57 1019.42 1019.48 1019.21 1019.05 1019.14 1019.55 1019.68 1019.77 1019.88 1020.42 1020.86 1021.44 1021.97 1022.35 1022.83 1023.63 1024.22 1024.91 1025.58 1025.95 1026.36 1026.83 1027.52 1028.61 1029.57 1030.30 1030.82 1031.21
1018.06 1018.34 1018.55 1018.60 1018.78 1018.79 1018.82 1019.03 1019.29 1019.28 1019.27 1019.39 1019.47 1019.45 1019.43 1019.42 1019.27 1019.21 1018.91 1018.85 1019.16 1019.71 1019.82 1020.11 1020.42 1020.82 1021.28 1021.77 1022.49 1023.00 1023.33 1023.68 1024.02 1024.44 1025.09 1025.93 1026.79 1027.59 1028.25 1028.91 1029.83 1030.40 1031.14
1018.42 1018.63 1018.78 1018.89 1019.07 1019.30 1019.35 1019.39 1019.44 1019.40 1019.32 1019.46 1019.33 1019.42 1019.31 1019.33 1019.20 1019.08 1018.67 1019.07 1019.09 1019.39 1020.01 1020.44 1020.70 1021.01 1021.47 1022.04 1022.54 1022.91 1023.19 1023.47 1023.82 1024.14 1024.76 1025.44 1026.27 1026.88 1027.44 1028.10 1028.82 1029.69 1030.07
1018.92 1019.13 1019.09 1019.15 1019.33 1019.39 1019.41 1019.60 1019.50 1019.47 1019.28 1019.24 1019.27 1019.31 1019.22 1019.20 1019.08 1019.02 1019.01 1019.02 1019.41 1019.36 1019.80 1020.24 1020.67 1020.81 1021.02 1021.43 1021.79 1022.31 1022.70 1022.90 1023.05 1023.51 1024.12 1024.59 1025.23 1025.83 1026.62 1027.40 1027.89 1028.46 1029.15
1019.50 1019.65 1019.66 1019.66 1019.73 1019.64 1019.57 1019.56 1019.61 1019.39 1019.37 1019.33 1019.22 1019.05 1019.09 1019.07 1018.98 1019.00 1019.09 1019.26 1019.47 1019.69 1019.70 1019.65 1020.06 1020.47 1020.68 1020.81 1021.13 1021.40 1021.66 1022.04 1022.41 1022.94 1023.24 1023.75 1024.34 1024.96 1025.75 1026.35 1026.91 1027.48 1028.28
1020.06 1020.05 1020.25 1020.21 1020.09 1020.19 1020.00 1019.81 1019.78 1019.72 1019.71 1019.51 1019.22 1019.05 1019.04 1019.00 1018.88 1018.92 1019.11 1019.39 1019.62 1019.61 1019.78 1019.65 1019.64 1019.79 1020.10 1020.42 1020.66 1020.85 1021.14 1021.56 1021.91 1022.42 1022.72 1023.05 1023.55 1024.11 1024.84 1025.31 1025.71 1026.13 1026.94
1020.63 1020.96 1021.06 1020.91 1020.48 1020.15 1019.99 1019.96 1019.88 1019.95 1019.81 1019.81 1019.44 1019.10 1019.13 1019.03 1018.84 1018.81 1018.91 1019.19 1019.39 1019.57 1019.63 1019.76 1019.80 1019.89 1019.91 1020.02 1020.23 1020.42 1020.73 1020.95 1021.26 1021.64 1021.96 1022.32 1022.73 1023.18 1023.67 1024.10 1024.58 1025.18 1025.86
1021.68 1021.59 1021.53 1021.71 1021.30 1020.69 1020.36 1020.29 1020.34 1020.23 1019.98 1019.90 1019.72 1019.49 1019.27 1019.27 1019.05 1019.03 1019.02 1019.13 1019.21 1019.25 1019.38 1019.48 1019.51 1019.57 1019.70 1019.83 1019.91 1020.03 1020.22 1020.34 1020.70 1020.81 1021.02 1021.33 1021.66 1021.99 1022.38 1022.92 1023.42 1023.97 1024.56
1022.10 1021.88 1022.04 1021.84 1021.84 1021.28 1021.10 1020.89 1020.82 1020.47 1020.23 1020.17 1019.94 1019.74 1019.51 1019.39 1019.36 1019.23 1019.20 1019.15 1019.08 1019.03 1019.10 1019.12 1019.08 1019.15 1019.19 1019.26 1019.45 1019.56 1019.64 1019.66 1019.79 1019.99 1020.26 1020.43 1020.73 1021.02 1021.29 1021.72 1022.26 1022.79 1023.42
1022.42 1022.53 1022.89 1022.83 1022.41 1022.02 1021.72 1021.52 1021.33 1020.99 1020.74 1020.45 1020.19 1019.81 1019.57 1019.39 1019.38 1019.31 1019.16 1019.03 1019.05 1019.06 1018.95 1018.85 1018.76 1018.77 1018.88 1018.90 1018.88 1018.99 1019.02 1018.97 1019.00 1019.21 1019.44 1019.78 1019.94 1020.18 1020.47 1020.86 1021.28 1021.82 1022.55
1022.97 1023.08 1023.34 1023.38 1023.19 1023.08 1022.65 1022.45 1022.24 1021.85 1021.44 1021.00 1020.56 1020.15 1019.78 1019.57 1019.51 1019.46 1019.30 1019.16 1018.97 1018.81 1018.73 1018.64 1018.53 1018.44 1018.28 1018.12 1018.28 1018.37 1018.35 1018.24 1018.22 1018.35 1018.55 1018.75 1019.09 1019.36 1019.65 1019.99 1020.42 1021.02 1021.52
1023.52 1023.69 1023.73 1023.80 1023.84 1023.90 1023.74 1023.39 1023.04 1022.66 1022.40 1022.03 1021.51 1020.94 1020.43 1020.13 1019.83 1019.55 1019.27 1019.03 1018.86 1018.44 1018.44 1018.33 1018.20 1018.07 1017.91 1017.87 1017.82 1017.71 1017.69 1017.59 1017.57 1017.64 1017.72 1017.97 1018.12 1018.40 1018.79 1019.17 1019.55 1019.93 1020.52
1024.03 1024.13 1024.26 1024.37 1024.50 1024.47 1024.26 1023.91 1023.51 1023.18 1022.87 1022.60 1022.27 1021.84 1021.42 1021.13 1020.84 1020.33 1019.89 1019.47 1019.02 1018.55 1017.98 1017.74 1017.74 1017.65 1017.53 1017.39 1017.31 1017.22 1017.06 1016.94 1016.96 1017.07 1017.13 1017.22 1017.30 1017.44 1017.73 1018.17 1018.59 1019.15 1019.72
1024.23 1024.17 1024.42 1024.51 1024.83 1024.64 1024.44 1024.14 1023.79 1023.48 1023.23 1022.77 1022.39 1022.02 1021.70 1021.45 1021.09 1020.61 1020.21 1019.86 1019.43 1018.98 1018.67 1017.91 1017.29 1016.98 1016.87 1016.76 1016.64 1016.50 1016.38 1016.29 1016.27 1016.35 1016.40 1016.53 1016.55 1016.66 1016.91 1017.11 1017.64 1018.20 1018.68
Wind_Speed
6 5 5 5 4 4 4 3 3 2 2 1 2 2 2 3 3 3 2 2 6 4 3 6 9 9 6 6 6 6 7 10 15 4 3 5 9 12 11 11 10 11 11
6 5 6 5 5 4 4 5 4 3 2 2 2 2 1 1 1 2 3 2 4 5 4 5 9 7 9 7 7 8 9 8 13 17 5 4 7 9 11 12 10 9 9
6 6 5 5 5 5 5 5 4 4 3 2 2 2 1 1 1 3 3 2 2 4 4 6 5 9 8 9 9 9 10 8 9 10 8 3 4 6 9 10 9 10 8
6 6 7 6 6 5 5 5 4 4 3 3 2 2 2 1 1 4 5 5 3 3 4 4 6 6 11 11 10 11 11 11 9 8 9 7 5 4 6 8 7 5 6
7 7 7 6 5 5 5 5 5 5 4 3 3 2 1 2 1 4 5 5 6 5 4 4 5 7 7 9 10 11 13 10 10 10 7 6 6 6 7 4 6 6 5
8 8 6 6 6 6 6 6 5 4 4 3 4 3 1 1 2 3 6 5 5 6 5 4 3 8 9 10 12 14 15 17 12 9 7 10 10 7 7 9 10 7 4
6 5 6 6 6 5 5 5 5 5 4 4 4 3 3 3 5 3 8 5 5 6 6 6 5 3 9 8 10 11 10 14 18 15 15 13 11 12 12 11 9 4 4
5 6 5 6 5 5 4 4 3 4 5 4 4 3 2 3 6 4 8 5 5 5 7 7 8 7 7 11 12 10 10 7 9 7 10 10 7 13 12 8 9 7 8
5 5 6 6 6 6 6 6 4 3 3 3 2 3 4 4 3 3 6 6 5 6 6 7 8 9 10 13 11 9 6 4 6 8 10 14 18 21 15 11 8 10 4
5 5 6 6 6 6 5 5 3 2 2 1 2 1 2 3 2 4 6 4 6 4 4 5 8 9 15 15 10 10 10 8 7 5 7 13 19 19 26 13 13 11 5
4 5 5 4 5 5 5 4 3 3 2 3 2 1 4 4 2 3 6 4 5 4 5 4 4 11 16 15 12 10 10 9 10 7 7 7 8 10 10 5 11 9 5
7 7 6 5 3 3 4 3 3 4 3 1 1 0 2 4 3 1 2 5 5 6 6 5 4 12 15 17 12 11 14 11 7 7 7 7 8 8 8 6 5 4 3
8 7 6 5 4 3 4 3 2 1 2 1 1 1 1 1 2 3 1 2 4 3 3 6 10 13 13 10 12 15 12 7 7 7 8 7 7 7 8 7 6 7 7
9 8 7 5 4 4 2 2 1 1 1 1 1 1 1 2 1 2 1 2 4 1 4 3 5 6 7 6 6 9 5 7 8 9 7 5 6 8 7 6 4 6 4
8 7 6 5 5 4 3 1 1 1 1 1 1 1 1 1 2 2 3 0 2 5 5 2 2 3 4 4 3 4 4 5 6 6 6 7 7 8 7 8 6 6 4
7 4 3 5 4 3 3 3 4 2 4 3 5 2 1 4 6 7 3 3 5 13 3 3 2 2 5 6 7 7 6 7 6 7 7 8 9 9 9 8 7 8 7
6 5 3 4 3 3 2 2 2 2 4 5 5 5 4 5 6 5 3 3 8 7 1 3 4 6 6 6 6 7 7 7 5 6 7 8 8 9 12 9 9 8 7
7 8 4 4 3 3 2 3 2 2 1 2 2 2 4 6 6 5 3 6 2 5 1 1 3 4 4 5 5 6 5 5 6 7 7 8 8 9 9 10 11 11 10
5 4 3 2 2 3 3 3 3 2 3 3 3 3 4 5 4 2 3 2 2 2 2 1 1 1 2 3 4 5 6 6 7 7 7 8 8 9 10 10 10 14 12
4 5 4 2 2 3 3 3 3 3 3 3 3 3 3 3 2 2 1 0 1 2 2 3 3 3 4 4 4 4 5 6 7 8 8 9 9 10 10 11 11 12 11
3 4 4 0 3 3 3 3 3 3 3 3 3 4 8 3 3 2 1 1 2 2 2 3 3 3 3 4 4 5 6 6 7 7 8 8 9 10 10 9 10 11 10
3 4 3 3 4 4 3 2 3 3 4 4 4 4 8 4 4 4 3 2 2 3 3 3 3 3 4 4 5 5 6 7 6 7 8 8 8 9 9 9 10 10 10
4 4 4 3 3 4 4 4 5 6 5 4 5 4 4 4 4 5 5 4 3 3 3 3 4 4 3 4 4 6 6 7 7 7 8 8 9 9 9 9 10 9 10
4 4 4 3 3 3 2 2 3 4 4 4 5 6 6 7 6 5 6 5 5 4 3 4 4 6 5 4 4 5 6 6 5 7 11 8 9 9 9 9 11 12 10
2 3 3 3 2 1 2 2 2 3 3 3 3 4 4 5 6 6 7 7 7 7 6 4 4 6 7 9 8 8 8 9 9 8 7 10 11 12 11 10 10 10 11
2 2 2 1 1 1 2 3 3 3 3 3 3 3 4 4 5 5 5 6 7 7 10 8 7 8 8 7 8 9 9 9 9 12 8 8 9 9 9 11 14 9 12
Wind_Direction
181 179 176 169 171 167 172 194 199 179 172 160 100 49 12 342 30 82 73 88 108 103 108 117 109 106 89 81 80 86 106 129 116 99 76 81 83 95 85 79 76 76 74
182 176 179 161 165 181 181 192 195 202 174 178 122 95 339 5 160 143 132 122 132 136 122 126 120 114 101 95 92 96 108 116 131 128 118 78 72 80 88 84 79 79 84
175 172 171 176 171 192 197 191 184 195 200 190 145 121 99 352 164 166 152 148 148 162 154 134 134 126 117 119 116 112 111 110 122 127 125 98 89 89 91 81 78 76 62
176 178 178 185 186 183 196 189 182 194 203 214 170 173 145 286 208 167 158 154 166 193 179 150 134 147 138 133 125 128 131 125 125 124 121 118 111 112 101 110 94 71 74
176 183 190 183 185 176 184 188 179 185 203 208 192 163 159 197 212 176 174 168 160 181 180 168 142 131 134 137 140 143 142 136 139 138 140 134 137 153 149 130 116 108 63
183 193 174 171 178 186 181 180 175 186 194 216 217 202 198 243 201 211 184 171 166 166 178 161 156 139 144 140 133 150 161 150 155 152 160 164 166 155 142 145 140 142 126
181 169 174 171 181 190 179 168 176 178 179 211 233 217 226 243 233 163 190 172 175 172 168 156 155 168 146 153 145 146 161 168 168 167 166 173 165 171 153 155 165 135 130
167 161 165 167 173 171 167 180 170 171 186 196 229 232 249 262 262 180 179 173 180 176 173 173 167 167 173 155 158 165 172 170 172 172 174 169 156 156 160 150 139 99 106
147 156 165 161 159 163 175 178 177 180 184 189 201 219 245 258 287 276 169 170 171 186 181 173 174 168 166 157 158 160 152 161 148 130 135 137 145 154 150 134 147 138 137
120 141 148 154 160 174 177 170 155 149 177 116 226 230 262 252 340 302 222 165 161 166 180 184 179 176 164 169 162 160 170 185 155 132 138 144 154 166 165 171 158 161 132
103 103 103 119 143 154 146 151 147 158 173 205 195 276 263 251 193 316 251 186 169 164 176 191 190 178 176 179 161 174 186 158 153 138 133 141 156 166 178 174 178 171 151
92 86 72 62 58 89 121 107 143 165 162 219 199 108 241 274 266 242 304 283 174 168 189 192 175 178 182 178 167 175 152 139 146 144 150 163 169 176 180 162 148 105 63
98 87 86 86 83 83 112 128 158 139 136 198 184 207 257 302 295 240 223 203 228 188 187 191 169 173 177 175 164 156 146 149 155 163 176 178 180 161 133 109 91 90 72
102 100 98 90 78 58 73 78 127 151 143 184 223 249 300 295 271 255 229 130 117 111 135 138 152 137 142 137 132 157 166 170 176 182 177 145 129 147 162 157 147 158 123
101 97 90 84 86 79 65 41 9 291 153 205 216 233 190 311 282 258 139 155 167 151 106 67 88 106 136 146 148 178 173 166 174 160 156 159 166 169 171 173 163 171 173
97 87 85 96 96 98 89 69 65 43 348 290 266 243 251 253 302 331 354 213 207 154 115 145 163 170 180 183 185 187 189 191 189 172 169 172 174 177 173 179 176 185 183
102 90 73 65 61 48 53 61 42 355 65 50 40 23 357 314 315 316 328 215 191 183 235 165 170 188 201 197 193 194 201 201 174 184 182 183 180 180 173 181 185 183 184
95 88 87 82 79 69 48 53 19 17 347 322 340 19 350 339 339 304 242 141 152 214 235 222 206 181 187 199 201 202 187 171 188 195 190 185 184 183 182 189 191 191 184
72 64 32 20 80 74 62 41 30 354 354 342 329 3 359 349 349 327 219 165 179 202 187 231 204 222 210 193 197 190 192 193 193 191 194 190 188 185 195 195 195 197 185
60 59 57 25 16 28 10 34 6 3 2 353 348 351 339 353 6 352 37 231 217 207 183 219 204 204 205 210 206 202 206 197 198 201 203 200 197 195 200 197 192 189 196
64 56 31 65 58 49 31 11 337 337 343 338 332 334 332 342 322 303 301 286 255 260 251 233 227 225 215 208 209 209 214 214 207 209 210 208 200 204 205 203 200 200 194
71 65 49 34 2 16 12 353 328 329 326 326 323 328 334 335 324 316 309 286 258 255 248 250 254 231 224 219 217 218 221 225 216 212 211 212 207 208 204 204 199 197 190
70 76 63 48 37 18 17 13 7 357 345 327 311 309 315 318 314 311 311 305 286 283 269 249 253 254 236 238 228 229 230 231 227 211 213 211 211 206 204 204 199 193 192
75 76 76 63 51 39 26 356 340 356 347 330 333 344 348 351 328 310 309 299 297 289 262 260 260 264 265 251 241 236 238 242 227 227 217 215 214 201 204 203 203 205 198
80 76 67 63 55 18 345 336 333 322 314 314 311 315 325 323 319 317 322 322 327 325 305 248 236 248 254 258 256 246 241 237 234 233 224 219 218 207 205 206 202 204 196
70 79 87 77 37 9 343 329 322 317 309 301 285 291 293 296 295 304 320 323 323 330 322 314 301 271 255 255 258 265 260 256 246 234 220 222 223 217 209 206 206 202 197